Time,TemperatureF,DewpointF,PressureIn,WindDirection,WindDirectionDegrees,WindSpeedMPH,WindSpeedGustMPH,Humidity,HourlyPrecipIn,Conditions,Clouds,dailyrainin,SoftwareType,DateUTC
2013-02-13 00:02:00,23.0,14.0,-100.00,South,189,12.0,19.0,67,0.00,,,0.00,,2013-02-13 07:02:00,
2013-02-13 00:11:00,23.0,14.0,-100.00,South,189,12.0,19.0,67,0.00,,,0.00,,2013-02-13 07:11:00,
2013-02-13 00:52:00,22.0,15.0,-100.00,SSE,165,7.0,12.0,74,0.00,,,0.00,,2013-02-13 07:52:00,
2013-02-13 01:01:00,22.0,15.0,-100.00,SSE,165,7.0,12.0,74,0.00,,,0.00,,2013-02-13 08:01:00,
2013-02-13 01:11:00,22.0,15.0,-100.00,SSE,165,7.0,12.0,74,0.00,,,0.00,,2013-02-13 08:11:00,
2013-02-13 01:52:00,23.0,16.0,-100.00,South,170,9.0,14.0,74,0.00,,,0.00,,2013-02-13 08:52:00,
2013-02-13 02:01:00,23.0,16.0,-100.00,South,170,9.0,14.0,74,0.00,,,0.00,,2013-02-13 09:01:00,
2013-02-13 02:11:00,23.0,16.0,-100.00,South,170,9.0,14.0,74,0.00,,,0.00,,2013-02-13 09:11:00,
2013-02-13 02:52:00,23.0,16.0,-100.00,SSE,168,6.0,10.0,75,0.00,,,0.00,,2013-02-13 09:52:00,
2013-02-13 03:01:00,23.0,16.0,-100.00,SSE,168,6.0,10.0,75,0.00,,,0.00,,2013-02-13 10:01:00,
2013-02-13 03:11:00,23.0,16.0,-100.00,SSE,168,6.0,10.0,75,0.00,,,0.00,,2013-02-13 10:11:00,
2013-02-13 03:52:00,22.0,16.0,-100.00,SSE,157,7.0,9.0,75,0.00,,,0.00,,2013-02-13 10:52:00,
2013-02-13 04:01:00,22.0,16.0,-100.00,SSE,157,7.0,9.0,75,0.00,,,0.00,,2013-02-13 11:01:00,
2013-02-13 04:11:00,22.0,16.0,-100.00,SSE,157,7.0,9.0,75,0.00,,,0.00,,2013-02-13 11:11:00,
2013-02-13 04:52:00,24.0,15.0,-100.00,South,187,8.0,12.0,69,0.00,,,0.00,,2013-02-13 11:52:00,
2013-02-13 05:02:00,24.0,15.0,-100.00,South,187,8.0,12.0,69,0.00,,,0.00,,2013-02-13 12:02:00,
2013-02-13 05:11:00,24.0,15.0,-100.00,South,187,8.0,12.0,69,0.00,,,0.00,,2013-02-13 12:11:00,
2013-02-13 05:52:00,25.0,16.0,-100.00,South,181,6.0,8.0,68,0.00,,,0.00,,2013-02-13 12:52:00,
2013-02-13 06:02:00,25.0,16.0,-100.00,South,181,6.0,8.0,68,0.00,,,0.00,,2013-02-13 13:02:00,
2013-02-13 06:11:00,25.0,16.0,-100.00,South,181,6.0,8.0,68,0.00,,,0.00,,2013-02-13 13:11:00,
2013-02-13 06:52:00,24.0,18.0,-100.00,SSE,158,2.0,3.0,78,0.00,,,0.00,,2013-02-13 13:52:00,
2013-02-13 07:01:00,24.0,18.0,-100.00,SSE,158,2.0,3.0,78,0.00,,,0.00,,2013-02-13 14:01:00,
2013-02-13 07:11:00,24.0,18.0,-100.00,SSE,158,2.0,3.0,78,0.00,,,0.00,,2013-02-13 14:11:00,
2013-02-13 07:52:00,23.0,18.0,-100.00,NE,44,3.0,5.0,78,0.00,,,0.00,,2013-02-13 14:52:00,
2013-02-13 08:01:00,23.0,18.0,-100.00,NE,44,3.0,5.0,78,0.00,,,0.00,,2013-02-13 15:01:00,
2013-02-13 08:11:00,23.0,18.0,-100.00,NE,44,3.0,5.0,78,0.00,,,0.00,,2013-02-13 15:11:00,
2013-02-13 08:52:00,26.0,16.0,-100.00,SSW,200,12.0,17.0,64,0.00,,,0.00,,2013-02-13 15:52:00,
2013-02-13 09:01:00,26.0,16.0,-100.00,SSW,200,12.0,17.0,64,0.00,,,0.00,,2013-02-13 16:01:00,
2013-02-13 09:11:00,26.0,16.0,-100.00,SSW,200,12.0,17.0,64,0.00,,,0.00,,2013-02-13 16:11:00,
2013-02-13 09:52:00,27.0,16.0,-100.00,South,188,12.0,18.0,62,0.00,,,0.00,,2013-02-13 16:52:00,
2013-02-13 10:01:00,27.0,16.0,-100.00,South,188,12.0,18.0,62,0.00,,,0.00,,2013-02-13 17:01:00,
2013-02-13 10:11:00,27.0,16.0,-100.00,South,188,12.0,18.0,62,0.00,,,0.00,,2013-02-13 17:11:00,
2013-02-13 10:52:00,28.0,16.0,-100.00,SSW,196,14.0,20.0,59,0.00,,,0.00,,2013-02-13 17:52:00,
2013-02-13 11:01:00,28.0,16.0,-100.00,SSW,196,14.0,20.0,59,0.00,,,0.00,,2013-02-13 18:01:00,
2013-02-13 11:11:00,28.0,16.0,-100.00,SSW,196,14.0,20.0,59,0.00,,,0.00,,2013-02-13 18:11:00,
2013-02-13 11:52:00,31.0,17.0,-100.00,South,175,9.0,16.0,56,0.00,,,0.00,,2013-02-13 18:52:00,
2013-02-13 12:01:00,31.0,17.0,-100.00,South,175,9.0,16.0,56,0.00,,,0.00,,2013-02-13 19:01:00,
2013-02-13 12:11:00,31.0,17.0,-100.00,South,175,9.0,16.0,56,0.00,,,0.00,,2013-02-13 19:11:00,
2013-02-13 12:52:00,31.0,17.0,-100.00,South,185,13.0,20.0,56,0.00,,,0.00,,2013-02-13 19:52:00,
2013-02-13 13:02:00,31.0,17.0,-100.00,South,185,13.0,20.0,56,0.00,,,0.00,,2013-02-13 20:02:00,
2013-02-13 13:11:00,31.0,17.0,-100.00,South,185,13.0,20.0,56,0.00,,,0.00,,2013-02-13 20:11:00,
2013-02-13 13:52:00,31.0,17.0,-100.00,SSW,206,17.0,23.0,56,0.00,,,0.00,,2013-02-13 20:52:00,
2013-02-13 14:01:00,31.0,17.0,-100.00,SSW,206,17.0,23.0,56,0.00,,,0.00,,2013-02-13 21:01:00,
2013-02-13 14:11:00,31.0,17.0,-100.00,SSW,206,17.0,23.0,56,0.00,,,0.00,,2013-02-13 21:11:00,
2013-02-13 14:52:00,31.0,18.0,-100.00,SSW,209,15.0,19.0,59,0.00,,,0.00,,2013-02-13 21:52:00,
2013-02-13 15:02:00,31.0,18.0,-100.00,SSW,209,15.0,19.0,59,0.00,,,0.00,,2013-02-13 22:02:00,
2013-02-13 15:11:00,31.0,18.0,-100.00,SSW,209,15.0,19.0,59,0.00,,,0.00,,2013-02-13 22:11:00,
2013-02-13 15:52:00,31.0,18.0,-100.00,SSW,201,10.0,16.0,59,0.00,,,0.00,,2013-02-13 22:52:00,
2013-02-13 16:01:00,31.0,18.0,-100.00,SSW,201,10.0,16.0,59,0.00,,,0.00,,2013-02-13 23:01:00,
2013-02-13 16:11:00,31.0,18.0,-100.00,SSW,201,10.0,16.0,59,0.00,,,0.00,,2013-02-13 23:11:00,
2013-02-13 16:52:00,31.0,18.0,-100.00,SSW,205,12.0,16.0,59,0.00,,,0.00,,2013-02-13 23:52:00,
2013-02-13 17:01:00,31.0,18.0,-100.00,SSW,205,12.0,16.0,59,0.00,,,0.00,,2013-02-14 00:01:00,
2013-02-13 17:11:00,31.0,18.0,-100.00,SSW,205,12.0,16.0,59,0.00,,,0.00,,2013-02-14 00:11:00,
2013-02-13 17:52:00,29.0,19.0,-100.00,SSW,203,16.0,23.0,64,0.00,,,0.00,,2013-02-14 00:52:00,
2013-02-13 18:01:00,29.0,19.0,-100.00,SSW,203,16.0,23.0,64,0.00,,,0.00,,2013-02-14 01:01:00,
2013-02-13 18:11:00,29.0,19.0,-100.00,SSW,203,16.0,23.0,64,0.00,,,0.00,,2013-02-14 01:11:00,
2013-02-13 18:51:00,28.0,20.0,-100.00,SSW,205,13.0,18.0,72,0.00,,,0.00,,2013-02-14 01:51:00,
2013-02-13 19:01:00,28.0,20.0,-100.00,SSW,205,13.0,18.0,72,0.00,,,0.00,,2013-02-14 02:01:00,
2013-02-13 19:11:00,28.0,20.0,-100.00,SSW,205,13.0,18.0,72,0.00,,,0.00,,2013-02-14 02:11:00,
2013-02-13 20:02:00,28.0,19.0,-100.00,SSW,196,11.0,15.0,70,0.00,,,0.00,,2013-02-14 03:02:00,
2013-02-13 20:11:00,28.0,19.0,-100.00,SSW,196,11.0,15.0,70,0.00,,,0.00,,2013-02-14 03:11:00,
2013-02-13 20:52:00,27.0,19.0,-100.00,SSW,206,12.0,16.0,70,0.01,,,0.01,,2013-02-14 03:52:00,
2013-02-13 21:01:00,27.0,19.0,-100.00,SSW,206,12.0,16.0,70,0.01,,,0.01,,2013-02-14 04:01:00,
2013-02-13 21:11:00,27.0,19.0,-100.00,SSW,206,12.0,16.0,70,0.01,,,0.01,,2013-02-14 04:11:00,
2013-02-13 21:52:00,27.0,20.0,-100.00,SSW,205,10.0,14.0,73,0.00,,,0.01,,2013-02-14 04:52:00,
2013-02-13 22:01:00,27.0,20.0,-100.00,SSW,205,10.0,14.0,73,0.00,,,0.01,,2013-02-14 05:01:00,
2013-02-13 22:11:00,27.0,20.0,-100.00,SSW,205,10.0,14.0,73,0.00,,,0.01,,2013-02-14 05:11:00,
2013-02-13 22:52:00,28.0,19.0,-100.00,WSW,244,4.0,6.0,68,0.00,,,0.01,,2013-02-14 05:52:00,
2013-02-13 23:02:00,28.0,19.0,-100.00,WSW,244,4.0,6.0,68,0.00,,,0.01,,2013-02-14 06:02:00,
2013-02-13 23:11:00,28.0,19.0,-100.00,WSW,244,4.0,6.0,68,0.00,,,0.01,,2013-02-14 06:11:00,
2013-02-13 23:52:00,27.0,19.0,-100.00,SSE,159,1.0,2.0,72,0.00,,,0.01,,2013-02-14 06:52:00,